Maun, Botswana

12:24 PM CAT on October 01, 2016 (GMT +0200)
Maun

Weather History for FBMN - September, 2013

Change the Weather History Date:

Saturday, September 21, 2013

  Actual Average Record
Temperature  
Mean Temperature 70 °F -  
Max Temperature 75 °F 91 °F 98 °F (2011)
Min Temperature 62 °F 62 °F 57 °F (2001)
Cooling Degree Days 4    
Growing Degree Days 20 (Base 50)    
Moisture  
Dew Point 28 °F    
Average Humidity 20    
Maximum Humidity 28    
Minimum Humidity 7    
Precipitation  
Precipitation 0.00 in - - ()
Sea Level Pressure  
Sea Level Pressure 30.05 in    
Wind  
Wind Speed 10 mph ()    
Max Wind Speed 20 mph    
Max Gust Speed -    
Visibility 6.0 miles    
Events      
Averages and records for this station are not official NWS values.
T = Trace of Precipitation, MM = Missing Value Source: Averaged Metar Reports

Daily Weather History Graph

Daily Weather History Graph

Search for Another Location

Airport or City:

Trip Planner

Search our weather history database for the weather conditions in past years. The results will help you decide how hot, cold, wet, or windy it might be!

Date:

Astronomy

Sep. 21, 2013 Rise Set
Actual Time 6:16 AM CAT 6:22 PM CAT
Civil Twilight 5:54 AM CAT 6:44 PM CAT
Nautical Twilight 5:29 AM CAT 7:09 PM CAT
Astronomical Twilight 5:03 AM CAT 7:35 PM CAT
Moon 8:21 PM CAT (9/21) 7:23 AM CAT (9/21)
Length of Visible Light 12h 49m
Length of Day
12h 05m
Waning Gibbous, 95% of the Moon is Illuminated
Sep 21
Waning Gibbous
Sep 27
Last Quarter
Oct 5
New
Oct 12
First Quarter
Oct 19
Full

Hourly Weather History & Observations

Time (CAT) Temp. Dew Point Humidity Pressure Visibility Wind Dir Wind Speed Gust Speed Precip Events Conditions
1:00 AM 73.4 °F 23.0 °F 15% 29.95 in - South 11.5 mph - N/A   Clear
2:00 AM 71 °F 20 °F 7%  in 6 mi South 9.2 mph - -  
2:00 AM 71.6 °F 19.4 °F 14% 29.92 in - South 9.2 mph - N/A   Clear
3:00 AM 69.8 °F 19.4 °F 15% 29.95 in - South 8.1 mph - N/A   Clear
4:00 AM 66.2 °F 21.2 °F 18% 29.95 in - South 4.6 mph - N/A   Clear
5:00 AM 64.4 °F 24.8 °F 22% 30.01 in - South 11.5 mph - N/A   Clear
6:00 AM 64.4 °F 24.8 °F 22% 30.01 in - South 11.5 mph - N/A   Clear
8:00 AM 66 °F 29 °F 15%  in 6 mi SSW 19.6 mph - -   Partly Cloudy
8:00 AM 66.2 °F 28.4 °F 24% 30.06 in - SSW 19.6 mph - N/A   Clear
9:00 AM 68.0 °F 32.0 °F 26% 30.09 in - South 17.3 mph - N/A   Clear
10:00 AM 68.0 °F 33.8 °F 28% 30.09 in - South 18.4 mph - N/A   Clear
11:00 AM 69.8 °F 33.8 °F 27% 30.12 in - SSW 18.4 mph - N/A   Clear
12:00 PM 71.6 °F 33.8 °F 25% 30.09 in - SSW 16.1 mph - N/A   Clear
1:00 PM 73.4 °F 32.0 °F 22% 30.09 in - South 13.8 mph - N/A   Clear
2:00 PM 76 °F 31 °F 10%  in 6 mi South 13.8 mph - -   Partly Cloudy
2:00 PM 75.2 °F 30.2 °F 19% 30.06 in - South 13.8 mph - N/A   Clear
3:00 PM 75.2 °F 28.4 °F 18% 30.04 in - South 13.8 mph - N/A   Clear
4:00 PM 75.2 °F 30.2 °F 19% 30.04 in - South 13.8 mph - N/A   Clear
7:00 PM 69.8 °F 28.4 °F 21% 30.09 in - South 10.4 mph - N/A   Clear
8:00 PM 67 °F 28 °F 13%  in 6 mi South 6.9 mph - -   Partly Cloudy
8:00 PM 68.0 °F 28.4 °F 23% 30.09 in - South 6.9 mph - N/A   Clear
10:00 PM 64.4 °F 28.4 °F 26% 30.12 in - South 5.8 mph - N/A   Clear
11:00 PM 62.6 °F 26.6 °F 26% 30.12 in - South 6.9 mph - N/A   Clear